{"data":{"norad_id":54821,"epoch":"2026-09-19T22:46:59.895840Z","epoch_age_seconds":140801,"freshness":"FRESH","line1":"1 54821U 22177B   26262.94930435 -.00000899  00000+0 -23123-4 0  9996","line2":"2 54821  43.0030 118.9210 0001352 268.5119  91.5578 15.27586255206635","mean_motion":15.27586255,"eccentricity":0.0001352,"inclination_deg":43.003,"raan_deg":118.921,"arg_perigee_deg":268.5119,"mean_anomaly_deg":91.5578,"bstar":-2.3123e-5,"rev_number":20663,"period_min":94.266362720055,"perigee_km":482.1027365554,"apogee_km":483.95799621127,"semimajor_km":6861.1673663833,"source":"CELESTRAK","updated_at":"2026-09-21T09:00:33.132312Z"}}